Voltar ao catálogo

FENGYUN 1C DEB

AtivoSSO
NORAD 29788·DEBRIS·🇨🇳 China

Lançado May 10, 1999 de Taiyuan Satellite Launch Center

Loading…

Próximas Passagens (próximas 24 horas)

TLE

AtualizadoSource: Space-Track

Época: Sep 14, 2026, 03:29 UTC

1 29788U 99025CE  26257.14552212  .00002149  00000-0  88089-3 0  9995
2 29788  98.7681 334.5609 0042339 109.9674 279.1159 14.27703756 12843

Acompanhe FENGYUN 1C DEB em tempo real com AllMySat

Download on the App Store